TimePDT,TemperatureF,Dew PointF,Humidity,Sea Level PressureIn,VisibilityMPH,Wind Direction,Wind SpeedMPH,Gust SpeedMPH,PrecipitationIn,Events,Conditions,WindDirDegrees,DateUTC
12:15 AM,57.2,51.8,82,30.04,10.0,Calm,Calm,-,N/A,,Overcast,0,2013-07-21 07:15:00
12:35 AM,57.2,51.8,82,30.05,10.0,NW,3.5,-,N/A,,Overcast,320,2013-07-21 07:35:00
12:55 AM,57.2,51.8,82,30.04,10.0,NW,5.8,-,N/A,,Overcast,320,2013-07-21 07:55:00
1:15 AM,57.2,50.0,77,30.04,10.0,NNW,5.8,-,N/A,,Overcast,330,2013-07-21 08:15:00
1:35 AM,57.2,50.0,77,30.04,10.0,NW,3.5,-,N/A,,Overcast,310,2013-07-21 08:35:00
1:55 AM,57.2,50.0,77,30.04,10.0,Calm,Calm,-,N/A,,Overcast,0,2013-07-21 08:55:00
2:15 AM,57.2,50.0,77,30.03,10.0,Calm,Calm,-,N/A,,Overcast,0,2013-07-21 09:15:00
2:35 AM,57.2,50.0,77,30.03,10.0,NW,5.8,-,N/A,,Overcast,310,2013-07-21 09:35:00
2:55 AM,57.2,50.0,77,30.03,10.0,WNW,4.6,-,N/A,,Overcast,290,2013-07-21 09:55:00
3:15 AM,57.2,50.0,77,30.03,10.0,NW,4.6,-,N/A,,Overcast,320,2013-07-21 10:15:00
3:35 AM,57.2,50.0,77,30.03,10.0,NW,4.6,-,N/A,,Overcast,320,2013-07-21 10:35:00
3:55 AM,57.2,50.0,77,30.03,10.0,NNW,4.6,-,N/A,,Overcast,340,2013-07-21 10:55:00
4:15 AM,57.2,50.0,77,30.03,10.0,WNW,4.6,-,N/A,,Overcast,290,2013-07-21 11:15:00
4:35 AM,57.2,48.2,72,30.02,10.0,Calm,Calm,-,N/A,,Overcast,0,2013-07-21 11:35:00
4:55 AM,55.4,50.0,82,30.02,10.0,Calm,Calm,-,N/A,,Overcast,0,2013-07-21 11:55:00
5:15 AM,57.2,50.0,77,30.02,10.0,WNW,3.5,-,N/A,,Overcast,300,2013-07-21 12:15:00
5:35 AM,57.2,50.0,77,30.03,10.0,NNW,5.8,-,N/A,,Overcast,340,2013-07-21 12:35:00
5:55 AM,55.4,50.0,82,30.03,10.0,North,6.9,-,N/A,,Overcast,360,2013-07-21 12:55:00
6:15 AM,55.4,50.0,82,30.03,10.0,NNE,4.6,-,N/A,,Overcast,30,2013-07-21 13:15:00
6:35 AM,55.4,50.0,82,30.03,10.0,NNE,5.8,-,N/A,,Overcast,20,2013-07-21 13:35:00
6:55 AM,55.4,50.0,82,30.03,10.0,NE,3.5,-,N/A,,Overcast,40,2013-07-21 13:55:00
7:15 AM,55.4,50.0,82,30.03,10.0,North,-9999.0,-,N/A,,Overcast,0,2013-07-21 14:15:00
7:35 AM,55.4,48.2,77,30.03,10.0,NE,4.6,-,N/A,,Overcast,40,2013-07-21 14:35:00
7:55 AM,55.4,48.2,77,30.03,10.0,North,4.6,-,N/A,,Overcast,360,2013-07-21 14:55:00
8:15 AM,57.2,48.2,72,30.04,10.0,North,5.8,-,N/A,,Overcast,360,2013-07-21 15:15:00
8:35 AM,57.2,48.2,72,30.04,10.0,North,5.8,-,N/A,,Overcast,360,2013-07-21 15:35:00
8:55 AM,57.2,50.0,77,30.05,10.0,North,5.8,-,N/A,,Overcast,360,2013-07-21 15:55:00
9:15 AM,57.2,50.0,77,30.04,10.0,NNW,3.5,-,N/A,,Overcast,330,2013-07-21 16:15:00
9:35 AM,57.2,50.0,77,30.04,10.0,NNW,3.5,-,N/A,,Overcast,330,2013-07-21 16:35:00
9:55 AM,59.0,50.0,72,30.04,10.0,NNW,6.9,-,N/A,,Overcast,330,2013-07-21 16:55:00
10:15 AM,60.8,50.0,68,30.04,10.0,NNW,3.5,-,N/A,,Overcast,340,2013-07-21 17:15:00
10:35 AM,60.8,51.8,72,30.04,10.0,NNW,4.6,-,N/A,,Overcast,330,2013-07-21 17:35:00
10:55 AM,60.8,51.8,72,30.04,10.0,Calm,Calm,-,N/A,,Overcast,0,2013-07-21 17:55:00
11:15 AM,62.6,51.8,68,30.03,10.0,West,4.6,-,N/A,,Overcast,280,2013-07-21 18:15:00
11:35 AM,62.6,51.8,68,30.03,10.0,NNW,4.6,-,N/A,,Overcast,340,2013-07-21 18:35:00
11:55 AM,64.4,51.8,64,30.03,10.0,West,3.5,-,N/A,,Overcast,270,2013-07-21 18:55:00
12:15 PM,64.4,53.6,68,30.02,10.0,Calm,Calm,-,N/A,,Overcast,0,2013-07-21 19:15:00
12:35 PM,66.2,53.6,64,30.02,10.0,NNW,4.6,-,N/A,,Overcast,330,2013-07-21 19:35:00
12:55 PM,66.2,53.6,64,30.01,10.0,West,5.8,-,N/A,,Mostly Cloudy,270,2013-07-21 19:55:00
1:15 PM,68.0,55.4,64,30.01,10.0,West,5.8,-,N/A,,Partly Cloudy,260,2013-07-21 20:15:00
1:35 PM,69.8,55.4,60,30.01,10.0,NNW,4.6,-,N/A,,Partly Cloudy,330,2013-07-21 20:35:00
1:55 PM,71.6,55.4,57,30.01,10.0,North,-9999.0,-,N/A,,Clear,0,2013-07-21 20:55:00
2:15 PM,71.6,57.2,60,30.00,10.0,WSW,5.8,-,N/A,,Clear,250,2013-07-21 21:15:00
2:35 PM,71.6,57.2,60,30.00,10.0,West,4.6,-,N/A,,Clear,260,2013-07-21 21:35:00
2:55 PM,73.4,57.2,57,30.00,10.0,West,5.8,-,N/A,,Clear,280,2013-07-21 21:55:00
3:15 PM,73.4,57.2,57,29.99,10.0,WNW,3.5,-,N/A,,Clear,290,2013-07-21 22:15:00
3:35 PM,73.4,57.2,57,29.99,10.0,West,4.6,-,N/A,,Clear,260,2013-07-21 22:35:00
3:55 PM,73.4,57.2,57,29.99,10.0,WSW,4.6,-,N/A,,Clear,250,2013-07-21 22:55:00
4:15 PM,75.2,57.2,53,29.98,10.0,WSW,8.1,-,N/A,,Clear,250,2013-07-21 23:15:00
4:35 PM,73.4,57.2,57,29.98,10.0,WSW,6.9,-,N/A,,Clear,250,2013-07-21 23:35:00
4:55 PM,73.4,57.2,57,29.97,10.0,WSW,6.9,-,N/A,,Clear,250,2013-07-21 23:55:00
5:15 PM,73.4,57.2,57,29.97,10.0,West,4.6,-,N/A,,Clear,260,2013-07-22 00:15:00
5:35 PM,73.4,57.2,57,29.97,10.0,SW,4.6,-,N/A,,Clear,230,2013-07-22 00:35:00
5:55 PM,73.4,57.2,57,29.97,10.0,West,8.1,-,N/A,,Clear,260,2013-07-22 00:55:00
6:15 PM,71.6,57.2,60,29.97,10.0,WSW,4.6,-,N/A,,Clear,250,2013-07-22 01:15:00
6:35 PM,71.6,57.2,60,29.97,10.0,SW,5.8,-,N/A,,Clear,230,2013-07-22 01:35:00
6:55 PM,71.6,57.2,60,29.97,10.0,West,4.6,-,N/A,,Clear,280,2013-07-22 01:55:00
7:15 PM,69.8,55.4,60,29.98,10.0,West,8.1,-,N/A,,Clear,280,2013-07-22 02:15:00
7:35 PM,68.0,55.4,64,29.98,10.0,WNW,8.1,-,N/A,,Clear,300,2013-07-22 02:35:00
7:55 PM,66.2,55.4,68,29.98,10.0,West,5.8,-,N/A,,Clear,280,2013-07-22 02:55:00
8:15 PM,66.2,55.4,68,29.98,10.0,West,5.8,-,N/A,,Clear,280,2013-07-22 03:15:00
8:35 PM,64.4,55.4,73,29.98,10.0,WNW,4.6,-,N/A,,Clear,290,2013-07-22 03:35:00
8:55 PM,62.6,53.6,72,29.99,10.0,West,4.6,-,N/A,,Partly Cloudy,280,2013-07-22 03:55:00
9:15 PM,62.6,53.6,72,30.00,10.0,West,4.6,-,N/A,,Mostly Cloudy,270,2013-07-22 04:15:00
9:35 PM,62.6,53.6,72,30.01,10.0,West,8.1,-,N/A,,Overcast,270,2013-07-22 04:35:00
9:55 PM,60.8,53.6,77,30.01,10.0,West,6.9,-,N/A,,Overcast,270,2013-07-22 04:55:00
10:15 PM,60.8,53.6,77,30.01,10.0,WNW,6.9,-,N/A,,Overcast,290,2013-07-22 05:15:00
10:35 PM,60.8,53.6,77,30.01,10.0,WNW,3.5,-,N/A,,Overcast,290,2013-07-22 05:35:00
10:55 PM,60.8,53.6,77,30.01,10.0,West,4.6,-,N/A,,Overcast,270,2013-07-22 05:55:00
11:15 PM,60.8,51.8,72,30.01,10.0,WNW,4.6,-,N/A,,Overcast,290,2013-07-22 06:15:00
11:35 PM,60.8,51.8,72,30.01,10.0,West,6.9,-,N/A,,Overcast,280,2013-07-22 06:35:00
11:55 PM,59.0,51.8,77,30.01,10.0,West,5.8,-,N/A,,Overcast,260,2013-07-22 06:55:00